1998-067XR

Last updated on Sat Oct 18 2025 00:02:08 GMT+0000 (Coordinated Universal Time)

1 66052U 98067XR 25290.75058145 .00035009 00000+0 63033-3 0 9996 2 66052 51.6315 59.6604 0003075 304.0171 56.0526 15.49467452 149
UTC large
Height (km)
Speed (km/s)
/
Latitude / Longitude
Inclination (degrees)
Orbital Period (minutes)
Azimuth
Elevation
Range (km)
Doppler Factor

Next 0 passes for location: London (51.5072 / 0.1276)

Sorry there are no passes over London.